Weather in Desenzano del Garda

Italy     45°28′04″N   10°32′14″E
temp.,
°C
wind,
m/s
gust,
m/s
humid.,
%
clouds,
%
prec.,
mm/h
press.,
hPa
HPBL,
m
3 march, wed
wed301:00+9n227130 0.0 103427
04:00+8nnw127096 0.0 103338
07:00+7nnw227196 0.0 103356
10:00+11wsw116285 0.0 1032206
13:00+14sw235474 0.0 1030522
16:00+14sw135528 0.0 1028515
19:00+10nne116914 0.0 102923
22:00+9nnw11750 0.0 102922
4 march, thu
thu401:00+8n11760 0.0 102822
04:00+7n11770 0.0 102622
07:00+7ne12772 0.0 102541
10:00+10se116567 0.0 1023261
13:00+12sw125672 0.0 1022608
16:00+12w135421 0.0 1019663
19:00+9wnw017011 0.0 102041
22:00+8nw117534 0.0 102022
5 march, fri
fri501:00+8w227545 0.0 101952
04:00+7nw1275100 0.0 101755
07:00+7nne227663 0.0 1017146
10:00+10ese116533 0.0 1016360
13:00+12sw126319 0.0 1015804
16:00+12wsw236648 0.1 1014805
19:00+10ene017949 0.1 101624
22:00+9n128633 0.8 101824
6 march, sat
sat601:00+9ene128857 2.9 102069
04:00+9ese478998 1.8 1021361
07:00+6ese8118697 3.2 1024522
10:00+5ese91276100 1.9 1026546
13:00+7ese6963100 2.1 1027949
16:00+8ese465588 0.0 10271041
19:00+5se246462 0.0 1028222
22:00+4ne01630 0.0 1030102
7 march, sun
sun701:00+3nw11670 0.0 103081
04:00+3w22726 0.0 102971
07:00+2w22743 0.0 102876
10:00+6wsw23600 0.0 1027569
13:00+9sw33550 0.0 1024912
16:00+9sw22550 0.0 1022940
19:00+6nne01700 0.0 102262
22:00+5nnw11730 0.0 102276